Lid_Strength_Index
3 3 3 2 1 1 2 3 4 3 4 3 2 1 2 4 5 6 7 7 9 10 10 9 8 8 9 9 9 8 8 7 7 10 11 11 12 11 12 11 12 13 14 12 12 14 15 7 8 12 9 7 7 6
3 3 3 2 1 0 2 3 3 4 4 3 2 1 1 3 4 6 7 7 7 9 8 6 6 6 6 6 7 7 8 8 7 9 9 9 11 11 11 14 9 13 11 13 11 12 8 6 7 6 6 7 6 6
3 3 3 2 1 0 1 3 3 3 4 2 2 2 2 3 4 5 8 7 7 8 7 7 7 6 5 4 3 7 6 6 6 4 7 8 11 9 11 11 10 8 8 11 10 9 8 7 6 5 5 5 5 5
3 3 3 2 1 0 1 2 3 3 2 2 3 1 2 3 4 5 7 6 6 7 9 7 6 5 4 4 4 4 4 6 5 5 7 7 8 6 9 9 10 8 8 10 9 8 7 6 6 5 5 4 5 4
3 3 2 2 1 0 1 3 3 2 3 3 2 2 2 3 4 5 6 6 5 6 8 7 5 5 5 5 4 4 5 5 6 7 8 8 6 8 7 8 9 7 8 9 10 7 7 7 5 4 5 5 4 5
3 3 2 2 1 0 1 3 3 2 2 2 2 2 2 4 5 6 7 6 5 4 7 9 5 6 5 6 6 5 5 6 6 7 7 5 5 6 9 10 7 6 6 5 7 5 6 5 4 4 5 4 4 4
2 3 2 2 0 1 1 2 2 1 2 2 2 2 3 4 5 6 7 6 5 4 7 9 8 6 5 5 6 7 6 6 7 7 6 6 6 6 7 9 7 6 5 5 5 5 6 5 6 4 4 4 4 3
2 2 2 1 1 1 1 2 2 2 1 2 3 2 4 4 5 5 4 5 4 5 6 9 9 6 5 5 6 6 7 7 7 6 5 6 5 6 9 6 5 5 5 5 5 4 5 4 4 4 3 3 4 4
2 2 2 1 2 2 2 2 1 2 2 3 3 4 4 6 7 5 3 3 3 5 8 9 9 9 5 6 5 5 5 8 5 6 6 6 7 9 7 6 5 5 6 5 4 4 4 5 4 4 4 4 4 4
2 2 2 1 2 2 2 2 2 3 3 4 4 6 8 7 4 3 5 6 6 6 7 9 9 9 7 7 6 6 5 7 8 6 6 7 7 6 5 5 5 4 4 4 5 6 5 5 5 4 4 4 3 3
1 1 2 2 2 2 2 2 2 3 3 4 6 7 6 3 6 6 7 7 7 8 7 7 8 8 6 8 8 6 8 7 10 8 9 8 9 8 6 5 4 4 4 4 3 3 3 4 4 4 4 3 3 3
1 1 2 2 1 1 2 3 2 2 3 4 5 5 6 6 7 8 9 7 8 9 7 7 6 7 5 6 6 6 8 8 11 7 9 11 9 7 6 5 4 4 4 4 3 3 3 3 3 3 3 3 3 3
1 2 2 1 1 2 2 2 2 3 4 4 5 7 7 8 12 11 12 10 10 7 6 6 6 6 6 5 7 8 10 9 6 10 11 10 7 6 5 5 5 4 4 3 3 3 3 3 3 3 3 3 2 3
1 2 2 1 1 1 2 2 3 3 4 6 8 13 10 10 9 9 8 7 6 6 6 7 6 6 6 7 7 10 8 8 11 12 12 8 7 6 5 5 5 5 4 4 4 3 3 3 3 3 3 2 3 3
1 1 1 1 2 1 1 2 2 3 5 7 7 11 9 7 7 7 7 7 6 6 6 6 6 6 6 8 7 8 10 12 11 11 9 7 5 5 5 5 5 5 4 4 4 4 3 3 3 3 2 2 2 2
1 2 2 1 2 2 2 2 3 3 5 7 7 9 8 8 8 7 7 7 5 5 5 6 7 8 9 8 10 11 11 12 9 8 6 5 5 5 5 4 4 4 4 4 3 3 3 3 3 3 2 2 2 2
5 5 1 1 2 2 2 4 4 6 7 8 9 7 7 8 8 8 7 6 5 5 7 7 9 10 7 9 10 8 10 8 6 6 5 4 5 4 4 4 4 3 4 3 3 3 3 2 2 3 3 2 2 2
5 2 1 2 2 3 5 6 6 8 10 8 9 8 7 7 7 7 6 5 5 6 6 8 6 9 10 11 10 8 7 5 5 5 5 4 4 4 4 4 3 3 4 3 3 3 2 3 3 3 3 2 2 2
5 3 2 2 3 5 7 7 6 10 9 7 7 7 7 7 7 6 6 5 5 4 5 6 8 9 8 7 7 6 5 5 5 5 4 3 3 4 3 3 3 3 3 3 3 3 3 2 3 2 2 2 3 2
2 2 3 3 3 6 8 8 6 8 9 8 7 8 8 8 8 6 5 5 6 6 7 8 7 6 6 5 4 4 4 3 4 6 5 4 3 3 3 3 4 3 3 3 3 5 3 3 2 2 2 2 3 3
3 3 4 4 6 6 8 8 9 9 9 9 9 8 8 7 7 7 7 6 7 7 8 7 5 4 3 3 3 3 3 3 4 4 5 5 4 3 3 3 3 3 4 4 4 3 4 3 3 2 2 2 2 2
5 4 5 5 8 8 8 8 8 8 8 8 8 7 8 9 9 8 7 8 8 8 5 5 4 4 4 4 3 3 3 3 3 3 4 4 5 4 4 3 3 4 3 3 3 3 2 2 2 2 2 2 2 2
5 6 7 8 10 11 10 7 9 8 10 9 8 9 9 8 7 6 7 7 7 5 5 5 4 3 3 3 2 2 2 3 3 3 3 4 4 3 3 3 3 3 3 3 2 2 2 5 3 2 2 2 2 2
5 8 10 10 11 12 8 10 8 8 8 9 10 11 9 8 5 7 9 7 5 3 4 4 3 4 3 3 4 3 3 2 3 3 3 3 4 4 3 3 2 2 2 1 2 2 2 2 4 2 2 2 2 3
11 11 10 13 9 10 10 10 10 9 10 8 9 9 8 6 9 9 9 7 5 5 4 3 3 4 5 4 4 3 2 3 4 4 3 3 3 3 3 2 2 2 1 2 2 2 2 2 2 2 2 2 2 2
14 10 12 11 11 11 11 12 11 11 10 11 11 9 9 10 13 13 9 7 5 5 5 5 5 5 5 4 4 4 3 2 2 4 3 2 2 3 4 4 4 3 1 1 2 3 3 2 2 3 3 2 5 2
13 12 11 9 9 10 11 10 9 11 13 13 13 13 13 14 12 9 6 4 5 3 2 3 3 3 4 3 2 2 1 1 2 2 1 1 1 1 2 3 3 2 1 1 1 2 3 3 3 2 2 2 2 2
12 11 13 12 12 10 12 12 12 12 11 10 10 11 11 11 10 6 5 3 2 2 2 2 1 2 2 2 2 2 2 1 1 1 1 1 1 1 1 1 1 7 1 1 2 1 1 2 2 2 2 2 2 1
12 11 10 12 11 12 12 11 9 8 6 6 8 9 8 6 6 6 5 5 4 4 4 4 5 3 2 2 2 3 2 2 3 4 4 4 4 3 2 3 3 3 2 3 7 6 4 3 2 1 1 1 1 1
10 9 9 10 10 9 7 6 6 5 5 6 6 7 7 6 5 4 4 4 4 4 3 3 3 3 4 4 4 4 4 3 3 3 4 5 4 3 3 3 3 3 2 2 2 2 5 3 4 2 3 3 3 3
8 8 7 7 8 6 6 5 4 4 4 5 5 6 6 5 5 4 5 4 4 4 5 5 5 5 4 4 4 5 5 3 3 3 3 3 2 2 3 3 3 3 3 4 4 4 5 5 5 5 5 5 5 5
6 7 7 9 8 5 4 5 5 5 5 5 6 5 5 5 7 6 5 4 5 5 6 5 5 5 4 4 4 4 8 4 5 5 4 3 4 4 4 4 4 4 4 5 6 6 6 6 6 6 6 6 6 6
6 6 6 6 7 6 5 6 6 7 6 6 6 5 5 5 7 4 3 4 5 6 6 5 5 5 5 5 5 5 7 6 8 10 10 10 10 8 6 5 5 5 5 5 5 6 6 6 6 6 6 6 6 6